Total_Precipitation_Accumulation
0.03 0.06 0.11 0.11 0.08 0.07 0.06 0.05 0.05 0.06 0.10 0.18 0.26 0.28 0.23 0.23 0.23 0.22 0.19 0.16 0.20 0.27 0.27 0.26 0.24 0.25 0.29 0.39 0.47 0.61 0.76 0.78 0.74 0.72 0.76 0.78 0.80 0.80 0.81 0.86 0.86 0.88 0.83 0.76
0.04 0.06 0.08 0.07 0.06 0.06 0.06 0.05 0.05 0.07 0.11 0.16 0.24 0.25 0.18 0.17 0.19 0.22 0.25 0.24 0.26 0.35 0.42 0.41 0.39 0.41 0.50 0.61 0.74 0.95 1.14 1.13 1.10 1.08 1.07 1.07 1.05 1.05 1.09 1.08 1.06 1.03 0.98 0.95
0.09 0.09 0.10 0.08 0.07 0.07 0.07 0.07 0.07 0.11 0.16 0.20 0.24 0.22 0.21 0.20 0.20 0.27 0.32 0.36 0.35 0.42 0.52 0.58 0.57 0.55 0.64 0.74 0.87 1.00 1.08 1.04 1.05 1.09 1.12 1.13 1.13 1.15 1.11 1.09 1.05 1.03 1.05 1.05
0.16 0.18 0.19 0.11 0.13 0.13 0.14 0.17 0.19 0.18 0.22 0.26 0.29 0.28 0.29 0.28 0.24 0.26 0.32 0.37 0.41 0.49 0.51 0.53 0.56 0.59 0.68 0.74 0.76 0.87 0.90 0.85 0.84 0.84 0.85 0.87 0.92 0.95 0.98 1.01 1.01 0.99 0.94 0.84
0.28 0.25 0.25 0.24 0.23 0.22 0.26 0.32 0.28 0.31 0.37 0.38 0.36 0.35 0.34 0.33 0.36 0.35 0.38 0.42 0.45 0.46 0.45 0.47 0.48 0.52 0.55 0.57 0.61 0.69 0.72 0.73 0.67 0.66 0.68 0.70 0.74 0.78 0.86 0.88 0.80 0.72 0.65 0.63
0.40 0.40 0.38 0.38 0.41 0.31 0.32 0.55 0.55 0.52 0.49 0.45 0.45 0.52 0.46 0.34 0.29 0.32 0.33 0.34 0.43 0.50 0.45 0.41 0.41 0.44 0.46 0.46 0.49 0.55 0.59 0.63 0.61 0.61 0.62 0.62 0.63 0.63 0.62 0.62 0.60 0.57 0.51 0.52
0.43 0.47 0.49 0.44 0.39 0.36 0.56 0.77 0.77 0.79 0.75 0.61 0.60 0.58 0.48 0.35 0.28 0.26 0.27 0.31 0.36 0.43 0.49 0.45 0.43 0.44 0.47 0.46 0.45 0.44 0.46 0.50 0.52 0.51 0.51 0.51 0.51 0.50 0.50 0.50 0.49 0.45 0.42 0.43
0.60 0.76 0.87 0.66 0.56 0.69 0.78 0.59 0.58 0.72 0.88 0.87 0.75 0.58 0.45 0.33 0.25 0.21 0.19 0.21 0.27 0.33 0.39 0.44 0.48 0.48 0.47 0.45 0.44 0.41 0.42 0.44 0.44 0.45 0.46 0.45 0.47 0.45 0.42 0.40 0.38 0.36 0.36 0.37
0.86 0.97 0.88 0.73 0.71 0.66 0.73 0.81 0.81 0.88 1.01 0.98 0.83 0.59 0.40 0.29 0.22 0.17 0.15 0.16 0.17 0.22 0.28 0.34 0.43 0.48 0.49 0.46 0.44 0.45 0.46 0.44 0.41 0.38 0.42 0.46 0.47 0.45 0.44 0.43 0.42 0.37 0.34 0.30
0.91 1.03 0.87 0.70 0.70 0.68 0.73 0.91 0.97 0.90 0.86 0.79 0.68 0.54 0.40 0.29 0.20 0.16 0.15 0.16 0.17 0.20 0.23 0.27 0.31 0.37 0.44 0.45 0.45 0.46 0.45 0.41 0.38 0.37 0.35 0.37 0.43 0.46 0.45 0.44 0.41 0.36 0.33 0.32
0.95 1.09 1.02 0.91 0.81 0.75 0.78 0.80 0.89 0.81 0.79 0.71 0.59 0.51 0.44 0.36 0.28 0.23 0.20 0.21 0.21 0.21 0.22 0.24 0.26 0.29 0.35 0.40 0.41 0.42 0.42 0.39 0.35 0.31 0.29 0.31 0.34 0.34 0.30 0.31 0.27 0.25 0.25 0.27
1.08 1.12 1.22 1.11 0.90 0.79 0.83 0.78 0.76 0.73 0.74 0.69 0.58 0.52 0.48 0.46 0.42 0.35 0.31 0.28 0.27 0.26 0.24 0.23 0.25 0.26 0.29 0.35 0.42 0.47 0.45 0.39 0.33 0.28 0.27 0.27 0.28 0.27 0.25 0.21 0.19 0.19 0.21 0.18
0.80 0.97 1.09 0.98 0.79 0.73 0.70 0.72 0.73 0.72 0.69 0.64 0.61 0.54 0.49 0.49 0.50 0.46 0.43 0.40 0.34 0.30 0.28 0.28 0.25 0.25 0.25 0.26 0.34 0.42 0.42 0.38 0.31 0.26 0.25 0.25 0.25 0.30 0.35 0.33 0.25 0.22 0.28 0.24
0.68 0.82 0.96 0.89 0.85 0.79 0.62 0.58 0.62 0.63 0.66 0.62 0.60 0.54 0.45 0.41 0.41 0.41 0.39 0.32 0.25 0.21 0.19 0.19 0.19 0.20 0.19 0.19 0.25 0.31 0.34 0.32 0.27 0.23 0.23 0.23 0.24 0.27 0.34 0.42 0.47 0.41 0.38 0.36
0.66 0.66 0.68 0.64 0.69 0.73 0.63 0.53 0.52 0.54 0.52 0.53 0.53 0.47 0.39 0.37 0.37 0.38 0.33 0.27 0.22 0.20 0.17 0.15 0.14 0.15 0.15 0.15 0.20 0.23 0.24 0.20 0.16 0.17 0.19 0.22 0.24 0.27 0.31 0.36 0.43 0.44 0.40 0.39
0.60 0.51 0.48 0.52 0.54 0.57 0.58 0.53 0.50 0.51 0.44 0.43 0.45 0.43 0.39 0.35 0.33 0.32 0.29 0.27 0.26 0.25 0.22 0.18 0.16 0.15 0.14 0.13 0.16 0.18 0.18 0.17 0.13 0.12 0.14 0.20 0.24 0.27 0.29 0.36 0.41 0.43 0.41 0.41
0.50 0.45 0.42 0.41 0.39 0.43 0.47 0.45 0.42 0.39 0.36 0.34 0.35 0.35 0.31 0.28 0.27 0.28 0.28 0.25 0.22 0.21 0.20 0.18 0.15 0.14 0.15 0.14 0.17 0.21 0.19 0.16 0.15 0.13 0.16 0.21 0.25 0.29 0.31 0.37 0.44 0.45 0.39 0.32
0.41 0.35 0.35 0.35 0.30 0.33 0.35 0.31 0.27 0.24 0.23 0.21 0.20 0.20 0.20 0.20 0.21 0.20 0.20 0.17 0.14 0.14 0.12 0.10 0.09 0.09 0.10 0.12 0.15 0.21 0.21 0.18 0.17 0.17 0.18 0.20 0.20 0.26 0.29 0.31 0.33 0.38 0.40 0.34
0.36 0.33 0.33 0.32 0.28 0.27 0.24 0.20 0.17 0.14 0.14 0.13 0.13 0.14 0.13 0.13 0.13 0.12 0.11 0.12 0.14 0.15 0.11 0.06 0.06 0.06 0.09 0.12 0.13 0.16 0.20 0.19 0.17 0.18 0.19 0.18 0.21 0.27 0.27 0.29 0.34 0.40 0.44 0.48
0.33 0.28 0.26 0.25 0.21 0.19 0.17 0.14 0.12 0.12 0.12 0.11 0.12 0.12 0.10 0.09 0.08 0.08 0.08 0.11 0.14 0.14 0.08 0.04 0.04 0.05 0.08 0.11 0.13 0.14 0.18 0.18 0.16 0.18 0.20 0.24 0.26 0.29 0.30 0.30 0.36 0.44 0.51 0.59
0.34 0.25 0.20 0.18 0.14 0.12 0.13 0.12 0.10 0.11 0.11 0.10 0.10 0.10 0.09 0.08 0.06 0.07 0.09 0.13 0.12 0.09 0.07 0.08 0.07 0.07 0.07 0.10 0.13 0.15 0.21 0.25 0.23 0.23 0.23 0.25 0.28 0.29 0.29 0.32 0.39 0.51 0.59 0.64
0.38 0.30 0.22 0.17 0.13 0.12 0.12 0.11 0.08 0.07 0.07 0.08 0.08 0.08 0.09 0.09 0.08 0.10 0.11 0.15 0.14 0.15 0.11 0.09 0.08 0.07 0.07 0.07 0.09 0.14 0.20 0.28 0.31 0.30 0.25 0.23 0.27 0.30 0.31 0.34 0.40 0.45 0.53 0.57
0.32 0.26 0.21 0.18 0.16 0.15 0.14 0.13 0.11 0.10 0.10 0.09 0.08 0.07 0.07 0.08 0.09 0.14 0.18 0.17 0.15 0.15 0.11 0.11 0.10 0.07 0.06 0.07 0.10 0.15 0.16 0.20 0.24 0.25 0.25 0.24 0.27 0.32 0.34 0.34 0.33 0.36 0.44 0.50
0.26 0.21 0.18 0.16 0.14 0.15 0.16 0.14 0.12 0.12 0.13 0.12 0.09 0.07 0.07 0.10 0.14 0.17 0.22 0.24 0.20 0.16 0.15 0.13 0.09 0.07 0.08 0.10 0.13 0.15 0.15 0.15 0.16 0.18 0.19 0.20 0.22 0.26 0.27 0.27 0.27 0.28 0.36 0.48
0.22 0.19 0.17 0.15 0.14 0.13 0.12 0.11 0.12 0.12 0.11 0.12 0.11 0.11 0.12 0.15 0.21 0.28 0.29 0.27 0.26 0.21 0.18 0.14 0.11 0.10 0.10 0.12 0.13 0.13 0.15 0.17 0.17 0.14 0.14 0.18 0.20 0.21 0.21 0.21 0.23 0.26 0.31 0.40
0.19 0.15 0.14 0.13 0.13 0.13 0.12 0.11 0.14 0.15 0.15 0.15 0.15 0.12 0.12 0.17 0.26 0.35 0.36 0.33 0.28 0.22 0.19 0.16 0.13 0.12 0.11 0.12 0.13 0.14 0.15 0.18 0.20 0.18 0.17 0.18 0.19 0.19 0.18 0.20 0.24 0.28 0.32 0.33
0.17 0.13 0.12 0.12 0.12 0.12 0.14 0.14 0.15 0.17 0.21 0.21 0.21 0.18 0.20 0.27 0.34 0.38 0.36 0.34 0.29 0.23 0.18 0.12 0.11 0.12 0.13 0.14 0.14 0.14 0.14 0.16 0.20 0.29 0.43 0.49 0.34 0.20 0.19 0.20 0.23 0.29 0.34 0.33